Meteo Giornale » Osservazioni meteo Stati Uniti (USA) » Rochester
ore: 23:54 - Osservazioni Meteo Rochester
Lat. 43° 54' N Lon. 92° 29' W Alt. 401 metri s.l.m.
22 °C
Sereno
Temp. 24 Ore
21 °C
30 °C
Nord-Ovest
13 Km/h
Dew point 20 °C
Umidità 88 %
Visibilità 11 Km
Il sole sorge alle ore 06:33
Il sole tramonta alle ore 19:46
| Data e Ora | Cielo e Fenomeni | T °C | DP °C | Um. % | Pres. hPa | Vis. km | Vento km/h | |
|---|---|---|---|---|---|---|---|---|
| Ieri h: 23:54 | Sereno | 22 | 20 | 88 | 1014 | 11 | NO 13 | |
| Ieri h: 22:54 | Sereno | 23 | 21 | 88 | 1014 | 11 | O/NO 11.1 | |
| Ieri h: 21:54 | Sereno | 24 | 22 | 88 | 1014 | 11 | O 11.1 | |
| Ieri h: 20:54 | Sereno | 24 | 23 | 94 | 1013 | 11 | O/SO 11.1 | |
| Ieri h: 19:54 | Foschia | 26 | 23 | 83 | 1012 | 10 | O/SO 9.3 | |
| Ieri h: 18:54 | Foschia | 28 | 23 | 74 | 1012 | 10 | SO 9.3 | |
| Ieri h: 17:54 | Foschia | 29 | 23 | 70 | 1012 | 10 | O 13 | |
| Ieri h: 17:02 | Foschia | 30 | 24 | 70 | 1012 | 10 | O 14.8 | |
| Ieri h: 16:54 | Foschia | 29 | 24 | 74 | 1012 | 10 | O/SO 16.7 | |
| Ieri h: 16:50 | Foschia | 29 | 24 | 74 | 1012 | 10 | SO 13 | |
| Ieri h: 16:39 | Foschia | 29 | 24 | 74 | 1012 | 10 | O/SO 13 | |
| Ieri h: 15:54 | Foschia | 29 | 24 | 74 | 1012 | 10 | O 9.3 | |
| Ieri h: 14:54 | Foschia | 28 | 23 | 74 | 1011 | 10 | O/SO 7.4 | |
| Ieri h: 13:54 | Foschia | 28 | 23 | 74 | 1011 | 10 | O 11.1 | |
| Ieri h: 12:54 | Foschia | 29 | 23 | 70 | 1011 | 10 | N 5.5 | |
| Ieri h: 11:54 | Foschia | 29 | 23 | 70 | 1012 | 10 | O 9.3 | |
| Ieri h: 10:54 | Foschia | 28 | 22 | 69 | 1011 | 10 | O/NO 13 | |
| Ieri h: 09:54 | Foschia | 26 | 22 | 78 | 1011 | 10 | O/SO 13 | |
| Ieri h: 08:54 | Foschia | 24 | 22 | 88 | 1010 | 10 | O/SO 14.8 | |
| Ieri h: 07:54 | Foschia | 22 | 21 | 94 | 1010 | 8 | S/SO 9.3 | |
| Ieri h: 06:54 | Foschia | 21 | 20 | 94 | 1009 | 6 | S 13 | |
| Ieri h: 05:54 | Foschia | 21 | 20 | 94 | 1009 | 10 | S 14.8 | |
| Ieri h: 04:54 | Foschia | 22 | 21 | 94 | 1009 | 10 | S/SO 14.8 | |
| Ieri h: 03:54 | Foschia | 22 | 21 | 94 | 1009 | 10 | S 16.7 | |
| Ieri h: 02:54 | Foschia | 22 | 21 | 94 | 1009 | 10 | S 16.7 | |
| Ieri h: 01:54 | Sereno | 22 | 21 | 94 | 1009 | 11 | S 16.7 | |
| Ieri h: 00:54 | Sereno | 22 | 21 | 94 | 1010 | 11 | S 16.7 | |



